QPF
0.00 0.00 0.00 0.00 0.00 0.00 0.00 0.00 0.00 0.00 0.00 0.00 0.00 0.00 0.00 0.00 0.00 0.00 0.00 0.00 0.00 0.00 0.00 0.00 0.00 0.00 0.00 0.00 0.00 0.00 0.00 0.00 0.00 0.00 0.00 0.00 0.00 0.00 0.00 0.00 0.00 0.00 0.00 0.00
0.00 0.00 0.00 0.00 0.00 0.00 0.00 0.00 0.00 0.00 0.00 0.00 0.00 0.00 0.00 0.00 0.00 0.00 0.00 0.00 0.00 0.00 0.00 0.00 0.00 0.00 0.00 0.00 0.00 0.00 0.00 0.00 0.00 0.00 0.00 0.00 0.00 0.00 0.00 0.00 0.00 0.00 0.00 0.00
0.00 0.00 0.00 0.00 0.00 0.00 0.00 0.00 0.00 0.00 0.00 0.00 0.00 0.00 0.00 0.00 0.00 0.00 0.00 0.00 0.00 0.00 0.00 0.00 0.00 0.00 0.00 0.00 0.00 0.00 0.00 0.00 0.00 0.00 0.00 0.00 0.00 0.00 0.00 0.00 0.00 0.00 0.00 0.00
0.00 0.00 0.00 0.00 0.00 0.00 0.00 0.00 0.00 0.00 0.00 0.00 0.00 0.00 0.00 0.00 0.00 0.00 0.00 0.00 0.00 0.00 0.00 0.00 0.00 0.00 0.00 0.00 0.00 0.00 0.00 0.00 0.00 0.00 0.00 0.00 0.00 0.00 0.00 0.00 0.00 0.00 0.00 0.00
0.00 0.00 0.00 0.00 0.00 0.00 0.00 0.00 0.00 0.00 0.00 0.00 0.00 0.00 0.00 0.00 0.00 0.00 0.00 0.00 0.00 0.00 0.00 0.00 0.00 0.00 0.00 0.00 0.00 0.00 0.00 0.00 0.00 0.00 0.00 0.00 0.00 0.00 0.00 0.00 0.00 0.00 0.00 0.00
0.00 0.00 0.00 0.00 0.00 0.00 0.00 0.00 0.00 0.00 0.00 0.00 0.00 0.00 0.00 0.00 0.00 0.00 0.00 0.00 0.00 0.00 0.00 0.00 0.00 0.00 0.00 0.00 0.00 0.00 0.00 0.00 0.00 0.00 0.00 0.00 0.00 0.00 0.00 0.00 0.00 0.00 0.00 0.00
0.00 0.00 0.00 0.00 0.00 0.00 0.00 0.00 0.00 0.00 0.00 0.00 0.00 0.00 0.00 0.00 0.00 0.00 0.00 0.00 0.00 0.00 0.00 0.00 0.00 0.00 0.00 0.00 0.00 0.00 0.00 0.00 0.00 0.00 0.00 0.00 0.00 0.00 0.00 0.00 0.00 0.00 0.00 0.00
0.00 0.00 0.00 0.00 0.00 0.00 0.00 0.00 0.00 0.00 0.00 0.00 0.00 0.00 0.00 0.00 0.00 0.00 0.00 0.00 0.00 0.00 0.00 0.00 0.00 0.00 0.00 0.00 0.00 0.00 0.00 0.00 0.00 0.00 0.00 0.00 0.00 0.00 0.00 0.00 0.00 0.00 0.00 0.00
0.00 0.00 0.00 0.00 0.00 0.00 0.00 0.00 0.00 0.00 0.00 0.00 0.00 0.00 0.00 0.00 0.00 0.00 0.00 0.00 0.00 0.00 0.00 0.00 0.00 0.00 0.00 0.00 0.00 0.00 0.00 0.00 0.00 0.00 0.00 0.00 0.00 0.00 0.00 0.00 0.00 0.00 0.00 0.00
0.00 0.00 0.00 0.00 0.00 0.00 0.00 0.00 0.00 0.00 0.00 0.00 0.00 0.00 0.00 0.00 0.00 0.00 0.00 0.00 0.00 0.00 0.00 0.00 0.00 0.00 0.00 0.00 0.00 0.00 0.00 0.00 0.00 0.00 0.00 0.00 0.00 0.00 0.00 0.00 0.00 0.00 0.00 0.00
0.00 0.00 0.00 0.00 0.00 0.00 0.00 0.00 0.00 0.00 0.00 0.00 0.00 0.00 0.00 0.00 0.00 0.00 0.00 0.00 0.00 0.00 0.00 0.00 0.00 0.00 0.00 0.00 0.00 0.00 0.00 0.00 0.00 0.00 0.00 0.00 0.00 0.00 0.00 0.00 0.00 0.00 0.00 0.00
0.00 0.00 0.00 0.00 0.00 0.00 0.00 0.00 0.00 0.00 0.00 0.00 0.00 0.00 0.00 0.00 0.00 0.00 0.00 0.00 0.00 0.00 0.00 0.00 0.00 0.00 0.00 0.00 0.00 0.00 0.00 0.00 0.00 0.00 0.00 0.00 0.00 0.00 0.00 0.00 0.00 0.00 0.00 0.00
0.00 0.00 0.00 0.00 0.00 0.00 0.00 0.00 0.00 0.00 0.00 0.00 0.00 0.00 0.00 0.00 0.00 0.00 0.00 0.00 0.00 0.00 0.00 0.00 0.00 0.00 0.00 0.00 0.00 0.00 0.00 0.00 0.00 0.00 0.00 0.00 0.00 0.00 0.00 0.00 0.00 0.00 0.00 0.01
0.00 0.00 0.00 0.00 0.00 0.00 0.00 0.00 0.00 0.00 0.00 0.00 0.00 0.00 0.00 0.00 0.00 0.00 0.00 0.00 0.00 0.00 0.00 0.00 0.00 0.00 0.00 0.00 0.00 0.00 0.00 0.00 0.00 0.00 0.00 0.00 0.00 0.00 0.00 0.00 0.00 0.01 0.01 0.00
0.00 0.00 0.00 0.00 0.00 0.00 0.00 0.00 0.00 0.00 0.00 0.00 0.00 0.00 0.00 0.00 0.00 0.00 0.00 0.00 0.00 0.00 0.00 0.00 0.00 0.00 0.00 0.00 0.00 0.00 0.00 0.00 0.00 0.00 0.00 0.00 0.00 0.00 0.00 0.00 0.00 0.00 0.00 0.00
0.00 0.00 0.00 0.00 0.00 0.00 0.00 0.00 0.00 0.00 0.00 0.00 0.00 0.00 0.00 0.00 0.00 0.00 0.00 0.00 0.00 0.00 0.00 0.00 0.00 0.00 0.00 0.00 0.00 0.00 0.00 0.00 0.00 0.00 0.00 0.00 0.00 0.00 0.00 0.00 0.00 0.00 0.00 0.00
0.00 0.00 0.00 0.00 0.00 0.00 0.00 0.00 0.00 0.00 0.00 0.00 0.00 0.00 0.00 0.00 0.00 0.00 0.00 0.00 0.00 0.00 0.00 0.00 0.00 0.00 0.00 0.00 0.00 0.00 0.00 0.00 0.00 0.00 0.00 0.00 0.00 0.00 0.00 0.00 0.00 0.00 0.00 0.00
0.00 0.00 0.00 0.00 0.00 0.00 0.00 0.00 0.00 0.00 0.00 0.00 0.00 0.00 0.00 0.00 0.00 0.00 0.00 0.00 0.00 0.00 0.00 0.00 0.00 0.00 0.00 0.00 0.00 0.00 0.00 0.00 0.00 0.00 0.00 0.00 0.00 0.00 0.00 0.00 0.00 0.00 0.00 0.00
0.00 0.00 0.00 0.00 0.00 0.00 0.00 0.00 0.00 0.00 0.00 0.00 0.00 0.00 0.00 0.00 0.00 0.00 0.00 0.00 0.00 0.00 0.00 0.00 0.00 0.00 0.00 0.00 0.00 0.00 0.00 0.00 0.00 0.00 0.00 0.00 0.00 0.00 0.00 0.00 0.00 0.00 0.00 0.00
0.00 0.00 0.00 0.00 0.00 0.00 0.00 0.00 0.00 0.00 0.00 0.00 0.00 0.00 0.00 0.00 0.00 0.00 0.00 0.00 0.00 0.00 0.00 0.00 0.00 0.00 0.00 0.00 0.00 0.00 0.00 0.00 0.00 0.00 0.00 0.00 0.00 0.00 0.00 0.00 0.00 0.00 0.00 0.00
0.00 0.00 0.00 0.00 0.00 0.00 0.00 0.00 0.00 0.00 0.00 0.00 0.00 0.00 0.00 0.00 0.00 0.00 0.00 0.00 0.00 0.00 0.00 0.00 0.00 0.00 0.00 0.00 0.00 0.00 0.00 0.00 0.00 0.00 0.00 0.00 0.00 0.00 0.00 0.00 0.00 0.00 0.00 0.00
0.00 0.00 0.00 0.00 0.00 0.00 0.00 0.00 0.00 0.00 0.00 0.00 0.00 0.00 0.00 0.00 0.00 0.00 0.00 0.00 0.00 0.00 0.00 0.00 0.00 0.00 0.00 0.00 0.00 0.00 0.00 0.00 0.00 0.00 0.00 0.00 0.00 0.00 0.00 0.00 0.00 0.00 0.00 0.00
0.00 0.00 0.00 0.00 0.00 0.00 0.00 0.00 0.00 0.00 0.00 0.00 0.00 0.00 0.00 0.00 0.00 0.00 0.00 0.00 0.00 0.00 0.00 0.00 0.00 0.00 0.00 0.00 0.00 0.00 0.00 0.00 0.00 0.00 0.00 0.00 0.00 0.00 0.00 0.00 0.00 0.00 0.00 0.00
0.00 0.00 0.00 0.00 0.00 0.00 0.00 0.00 0.00 0.00 0.00 0.00 0.00 0.00 0.00 0.00 0.00 0.00 0.00 0.00 0.00 0.00 0.00 0.00 0.00 0.00 0.00 0.00 0.00 0.00 0.00 0.00 0.00 0.00 0.00 0.00 0.00 0.00 0.00 0.00 0.00 0.00 0.00 0.00
0.00 0.00 0.00 0.00 0.00 0.00 0.00 0.00 0.00 0.00 0.00 0.00 0.00 0.00 0.00 0.00 0.00 0.00 0.00 0.00 0.00 0.00 0.00 0.00 0.00 0.00 0.00 0.00 0.00 0.00 0.00 0.00 0.00 0.00 0.00 0.00 0.00 0.00 0.00 0.00 0.00 0.00 0.00 0.00
0.01 0.01 0.00 0.00 0.00 0.00 0.00 0.00 0.00 0.00 0.00 0.00 0.00 0.00 0.00 0.00 0.00 0.00 0.00 0.00 0.00 0.00 0.00 0.00 0.00 0.00 0.00 0.00 0.00 0.00 0.00 0.00 0.00 0.00 0.00 0.00 0.00 0.00 0.00 0.00 0.00 0.00 0.00 0.00
MSLP
1005.07 1005.80 1006.04 1006.23 1006.36 1006.67 1006.98 1007.33 1007.85 1007.91 1008.07 1009.07 1010.07 1011.10 1011.72 1012.36 1013.00 1013.27 1013.22 1013.30 1013.38 1013.56 1013.86 1014.46 1014.93 1015.41 1015.86 1016.23 1016.75 1016.99 1017.32 1017.41 1017.69 1017.88 1018.00 1018.00 1017.98 1017.77 1017.57 1017.24 1017.09 1017.10 1017.06 1016.89
1005.79 1005.81 1005.48 1005.54 1006.04 1006.35 1006.60 1006.92 1007.49 1007.57 1007.70 1008.73 1009.95 1010.58 1011.39 1011.76 1011.76 1012.57 1012.73 1012.81 1012.82 1013.16 1013.61 1014.03 1014.55 1014.97 1015.37 1015.74 1016.22 1016.61 1016.90 1017.16 1017.41 1017.52 1017.57 1017.56 1017.60 1017.59 1017.59 1017.28 1017.13 1017.06 1016.89 1016.72
1005.50 1005.34 1005.15 1005.37 1005.50 1005.99 1006.19 1006.69 1006.96 1007.58 1007.71 1008.76 1009.70 1010.85 1011.50 1011.63 1011.85 1012.19 1012.10 1012.31 1012.53 1012.77 1013.11 1013.56 1014.03 1014.45 1014.84 1015.20 1015.53 1016.03 1016.39 1016.64 1016.93 1017.15 1017.40 1017.59 1017.64 1017.56 1017.67 1017.38 1017.18 1016.94 1016.93 1016.75
1005.20 1004.80 1004.91 1004.84 1004.74 1005.05 1005.71 1005.51 1006.50 1007.39 1008.21 1008.99 1009.14 1010.42 1010.53 1010.50 1010.71 1011.08 1011.17 1011.34 1011.71 1012.07 1012.51 1012.87 1013.31 1013.85 1014.14 1014.47 1014.87 1015.36 1015.85 1016.22 1016.46 1016.76 1017.20 1017.50 1017.43 1017.65 1017.56 1017.39 1017.19 1017.01 1016.75 1016.56
1004.21 1003.91 1004.22 1004.15 1003.52 1004.14 1004.30 1004.81 1005.75 1006.94 1008.14 1008.86 1009.34 1010.08 1008.75 1008.98 1009.54 1009.49 1009.76 1010.03 1010.56 1011.01 1011.58 1011.94 1012.43 1012.92 1013.37 1013.88 1014.24 1014.76 1015.34 1015.73 1016.03 1016.31 1016.57 1017.00 1017.19 1017.24 1017.10 1017.26 1017.32 1017.09 1016.73 1016.38
1003.67 1003.19 1003.16 1002.54 1002.58 1002.93 1003.29 1004.69 1005.84 1007.15 1008.51 1009.44 1008.36 1009.27 1007.70 1007.60 1006.40 1007.35 1008.04 1008.70 1009.24 1009.93 1010.58 1011.14 1011.65 1012.26 1012.78 1013.25 1013.69 1014.15 1014.71 1015.07 1015.47 1015.74 1016.14 1016.45 1016.70 1016.88 1017.14 1017.25 1017.41 1017.14 1016.95 1016.80
1003.75 1003.07 1002.59 1002.16 1002.52 1002.14 1003.65 1005.05 1006.68 1008.54 1009.51 1009.00 1007.93 1008.09 1005.60 1004.60 1004.65 1004.99 1006.13 1007.01 1007.98 1008.72 1009.67 1010.40 1011.17 1011.66 1012.09 1012.45 1012.89 1013.46 1013.99 1014.45 1014.88 1015.30 1015.54 1015.83 1016.10 1016.38 1016.66 1016.87 1017.15 1017.22 1017.16 1016.95
1004.04 1003.15 1001.98 1001.90 1002.52 1003.04 1003.65 1004.94 1006.43 1008.12 1009.07 1008.39 1007.43 1006.47 1003.72 1002.24 1003.06 1003.94 1004.65 1005.40 1006.81 1007.79 1008.52 1009.36 1009.98 1010.57 1011.07 1011.56 1012.16 1012.71 1013.24 1013.87 1014.31 1014.62 1014.88 1015.18 1015.47 1015.84 1016.14 1016.39 1016.73 1016.85 1017.00 1016.82
1003.36 1002.66 1001.27 1001.12 1001.41 1002.31 1003.70 1004.79 1004.99 1007.00 1008.24 1008.95 1006.81 1004.79 1002.94 1001.65 1002.32 1003.33 1004.28 1005.28 1006.02 1006.79 1007.49 1008.24 1009.04 1009.63 1010.20 1010.80 1011.17 1011.81 1012.55 1013.10 1013.48 1013.80 1014.26 1014.68 1015.08 1015.48 1015.74 1016.03 1016.39 1016.50 1016.64 1016.70
1002.44 1002.79 1001.45 1000.87 1001.38 1001.90 1002.42 1003.61 1005.66 1007.31 1008.43 1008.42 1006.44 1004.81 1003.09 1002.43 1002.32 1002.96 1003.90 1004.32 1005.07 1005.91 1006.72 1007.43 1008.07 1008.63 1009.20 1009.69 1010.44 1011.24 1011.73 1012.05 1012.44 1012.99 1013.49 1014.06 1014.61 1015.05 1015.47 1015.83 1016.13 1016.32 1016.57 1016.59
1002.28 1002.46 1001.76 1001.29 1000.82 1001.20 1002.46 1003.31 1005.05 1006.29 1007.26 1006.99 1006.10 1004.53 1002.02 1001.78 1001.83 1001.97 1002.69 1003.22 1003.99 1004.82 1005.61 1006.43 1007.13 1007.75 1008.26 1008.95 1009.64 1010.12 1010.76 1011.23 1011.64 1012.13 1012.78 1013.51 1014.08 1014.68 1015.19 1015.54 1015.82 1016.21 1016.56 1016.69
1002.00 1002.35 1002.40 1001.24 1000.48 1000.35 1001.23 1002.39 1003.81 1005.83 1006.83 1006.70 1005.10 1003.04 1001.18 1000.89 1001.02 1001.33 1002.10 1002.82 1003.23 1003.82 1004.66 1005.49 1006.21 1007.10 1007.81 1008.27 1008.80 1009.22 1009.78 1010.27 1010.57 1011.35 1012.29 1013.00 1013.67 1014.30 1014.79 1015.11 1015.56 1016.03 1016.35 1016.80
1001.76 1001.85 1002.42 1001.70 1001.07 1000.63 1000.86 1001.77 1002.77 1004.09 1005.20 1005.51 1004.72 1002.50 1001.01 1000.97 1001.22 1001.11 1001.32 1001.83 1002.69 1003.30 1004.38 1005.21 1005.88 1006.36 1006.92 1007.49 1008.01 1008.43 1008.89 1009.15 1009.98 1010.98 1011.85 1012.76 1013.45 1013.94 1014.24 1014.72 1015.28 1015.86 1016.31 1016.92
1002.03 1001.31 1001.52 1000.82 1000.00 1000.02 1000.47 1000.91 1001.83 1002.83 1004.29 1004.52 1003.54 1001.91 1001.00 1001.11 1000.87 1000.81 1000.73 1000.85 1001.40 1002.45 1003.24 1003.86 1004.85 1005.44 1006.06 1006.77 1007.36 1007.80 1008.17 1008.87 1009.78 1010.64 1011.52 1012.34 1012.87 1013.16 1013.71 1014.36 1015.02 1015.66 1016.34 1017.09
1001.53 1001.48 1001.24 1000.48 1000.26 999.85 999.72 1000.09 1000.75 1001.64 1002.02 1002.49 1001.78 1001.52 1000.06 999.63 999.80 999.76 999.51 999.76 1000.94 1001.81 1002.48 1003.11 1003.84 1004.58 1005.23 1005.98 1006.67 1007.28 1007.78 1008.55 1009.32 1010.31 1011.12 1011.65 1012.12 1012.80 1013.51 1014.17 1014.87 1015.69 1016.49 1017.32
1002.61 1001.66 1001.19 1000.69 1000.08 999.75 999.69 999.41 999.88 1000.03 1000.37 1000.41 1000.10 999.73 998.46 998.56 998.71 998.84 998.94 999.66 1000.22 1000.71 1001.20 1001.57 1002.27 1003.61 1004.34 1004.85 1005.39 1006.19 1007.12 1008.04 1008.92 1009.80 1010.62 1011.22 1011.90 1012.70 1013.42 1014.18 1014.97 1015.73 1016.72 1017.63
1004.71 1002.81 1001.77 1000.67 1000.18 999.96 999.09 997.78 998.42 998.81 998.91 999.07 999.12 998.50 997.97 998.11 998.27 998.29 998.70 999.09 999.16 999.57 1000.22 1000.85 1001.52 1002.28 1002.94 1003.64 1004.28 1005.17 1006.30 1007.39 1008.47 1009.39 1010.23 1010.98 1011.71 1012.56 1013.39 1014.23 1015.07 1015.97 1017.05 1017.87
1004.49 1003.82 1002.44 1001.15 1000.63 999.47 996.73 996.65 997.10 997.55 997.63 997.80 997.92 997.29 997.26 997.05 996.83 997.07 997.46 998.31 998.31 998.82 999.28 999.94 1000.74 1001.53 1002.17 1003.07 1004.03 1004.98 1006.02 1006.97 1008.06 1009.07 1009.95 1010.75 1011.58 1012.51 1013.39 1014.24 1015.26 1016.30 1017.20 1018.04
1003.63 1003.97 1003.00 1001.29 999.86 998.42 996.79 996.24 996.02 996.50 996.49 996.60 997.20 997.03 996.60 996.66 997.02 996.84 997.18 997.13 997.74 997.64 998.04 998.68 999.37 1000.31 1001.53 1002.46 1003.52 1004.63 1005.81 1006.70 1007.73 1008.65 1009.51 1010.35 1011.08 1012.19 1013.25 1014.27 1015.34 1016.33 1017.34 1018.29
1001.96 1002.62 1002.86 1001.13 999.56 997.51 996.44 994.97 994.72 995.53 995.88 995.65 996.05 996.29 996.58 996.75 997.39 996.53 996.30 996.46 997.21 997.71 997.69 998.60 999.53 1000.53 1001.50 1002.49 1003.28 1004.35 1005.40 1006.25 1007.18 1008.03 1008.93 1009.83 1010.71 1011.79 1013.01 1014.08 1015.20 1016.31 1017.21 1018.07
1002.38 1002.31 1001.93 1000.54 998.72 996.96 994.99 994.37 994.48 995.10 995.13 994.78 995.11 995.33 995.98 996.52 996.07 995.08 995.83 996.44 997.14 998.04 998.09 998.87 999.81 1000.38 1001.31 1002.38 1003.34 1004.54 1005.46 1006.21 1006.87 1007.85 1008.87 1009.84 1010.76 1011.78 1012.89 1014.11 1015.15 1016.24 1017.30 1018.08
1000.72 1001.07 1000.76 999.65 997.96 995.86 993.78 993.97 993.69 993.50 993.43 994.15 994.49 994.44 995.05 995.11 994.82 995.48 995.76 996.17 996.99 997.84 998.65 999.44 1000.22 1001.03 1001.85 1002.53 1003.26 1004.56 1005.45 1006.21 1007.05 1007.81 1008.87 1009.95 1010.96 1011.94 1013.08 1014.10 1015.43 1016.37 1017.14 1017.99
1000.83 999.94 999.13 997.41 995.38 994.03 992.87 992.16 992.26 992.29 992.99 993.08 993.19 993.26 993.81 994.59 994.89 995.29 996.14 996.50 997.05 997.40 998.31 999.53 1000.28 1001.24 1001.99 1002.70 1003.46 1004.68 1005.94 1006.71 1007.66 1008.42 1008.98 1010.10 1011.23 1012.30 1013.28 1014.34 1015.52 1016.54 1017.13 1017.91
1001.08 999.55 999.10 997.35 995.04 993.86 992.86 992.20 991.66 991.90 992.21 992.16 992.41 992.67 993.36 994.03 994.77 995.27 995.79 996.53 997.17 997.66 998.25 999.19 1000.36 1001.28 1002.18 1002.90 1003.70 1004.62 1005.69 1006.86 1008.01 1009.01 1009.70 1010.18 1011.42 1012.71 1013.79 1014.63 1015.39 1016.24 1017.00 1017.79
1002.32 1000.71 999.83 997.79 995.93 994.61 993.53 991.81 991.75 991.71 991.53 991.75 992.12 992.50 993.02 994.09 994.65 995.47 996.26 996.51 997.04 997.80 998.63 999.32 1000.19 1001.27 1002.32 1003.13 1004.14 1005.06 1005.96 1006.85 1008.41 1009.47 1010.49 1010.71 1011.73 1013.04 1014.33 1015.50 1016.01 1016.36 1016.80 1017.00
1003.01 1002.17 1001.53 999.53 998.05 997.78 995.29 993.65 991.71 991.59 991.49 991.52 992.08 992.64 993.19 993.77 994.49 995.31 995.98 996.37 996.81 997.82 998.61 999.61 1000.54 1001.48 1002.56 1003.45 1004.50 1005.38 1006.01 1006.77 1008.23 1009.84 1011.02 1011.59 1012.14 1013.50 1014.64 1015.63 1016.69 1016.94 1016.93 1017.05
Thickness
5809 5788 5780 5796 5801 5804 5799 5793 5787 5798 5812 5795 5784 5778 5779 5784 5782 5781 5784 5784 5786 5788 5792 5791 5789 5788 5784 5781 5777 5777 5777 5779 5779 5778 5778 5778 5777 5778 5779 5780 5780 5779 5778 5777
5788 5774 5806 5814 5810 5806 5801 5794 5785 5802 5810 5799 5783 5782 5785 5787 5790 5787 5789 5788 5790 5792 5793 5794 5793 5792 5790 5787 5786 5784 5784 5784 5784 5783 5784 5784 5782 5781 5781 5782 5781 5779 5779 5779
5775 5797 5814 5809 5805 5796 5794 5784 5788 5792 5804 5801 5790 5774 5777 5787 5791 5792 5797 5797 5796 5795 5794 5797 5797 5797 5797 5795 5795 5792 5791 5790 5790 5789 5787 5785 5784 5783 5780 5782 5781 5782 5779 5778
5787 5809 5805 5801 5805 5807 5776 5812 5805 5797 5785 5765 5800 5752 5774 5791 5789 5795 5799 5802 5800 5801 5804 5805 5805 5803 5804 5804 5804 5801 5798 5796 5796 5793 5789 5785 5783 5779 5782 5783 5784 5784 5783 5782
5785 5800 5795 5795 5814 5820 5809 5822 5812 5805 5784 5785 5784 5766 5788 5801 5790 5801 5807 5811 5809 5810 5811 5811 5813 5813 5813 5812 5810 5808 5804 5801 5800 5797 5795 5790 5786 5786 5786 5784 5783 5784 5784 5783
5799 5825 5812 5819 5834 5835 5840 5822 5810 5788 5773 5749 5787 5777 5786 5792 5818 5819 5823 5822 5819 5819 5820 5821 5823 5821 5818 5818 5816 5813 5809 5807 5805 5803 5799 5796 5791 5788 5786 5786 5783 5783 5782 5780
5787 5798 5817 5831 5811 5824 5819 5785 5747 5742 5741 5750 5786 5779 5818 5834 5843 5844 5838 5837 5834 5832 5828 5827 5824 5824 5823 5823 5822 5819 5815 5811 5809 5806 5804 5801 5798 5794 5790 5789 5786 5782 5780 5779
5751 5757 5801 5817 5805 5794 5798 5788 5748 5732 5738 5763 5788 5775 5822 5867 5863 5859 5858 5854 5847 5841 5839 5836 5836 5834 5832 5830 5828 5825 5822 5816 5814 5811 5809 5807 5804 5800 5796 5793 5789 5786 5782 5781
5744 5762 5819 5824 5830 5820 5795 5777 5815 5777 5761 5752 5774 5813 5847 5862 5861 5857 5855 5852 5849 5849 5847 5845 5844 5843 5840 5837 5836 5833 5827 5823 5820 5818 5814 5810 5807 5803 5799 5797 5793 5790 5787 5782
5777 5763 5804 5824 5827 5822 5809 5820 5773 5752 5739 5740 5775 5794 5812 5841 5849 5855 5852 5855 5856 5856 5853 5853 5852 5851 5849 5848 5844 5839 5836 5832 5829 5824 5820 5815 5810 5806 5802 5799 5794 5791 5787 5783
5778 5769 5786 5807 5797 5800 5794 5787 5781 5777 5758 5752 5757 5787 5841 5846 5861 5863 5862 5866 5864 5862 5861 5860 5860 5859 5858 5854 5850 5847 5843 5838 5834 5831 5826 5819 5814 5809 5804 5800 5796 5791 5786 5781
5775 5757 5757 5782 5819 5828 5819 5802 5797 5763 5765 5758 5774 5791 5865 5863 5872 5875 5870 5869 5872 5872 5870 5868 5867 5863 5859 5858 5856 5853 5850 5846 5844 5837 5829 5822 5816 5810 5805 5801 5796 5791 5785 5779
5768 5746 5733 5766 5784 5806 5800 5803 5798 5786 5776 5764 5770 5794 5858 5862 5864 5874 5876 5877 5875 5873 5868 5867 5866 5865 5863 5862 5860 5858 5856 5854 5848 5839 5830 5822 5816 5812 5808 5803 5798 5791 5783 5775
5758 5743 5759 5747 5783 5795 5792 5804 5802 5800 5764 5773 5780 5821 5844 5849 5857 5868 5877 5883 5884 5878 5875 5875 5870 5870 5869 5866 5863 5860 5859 5856 5848 5839 5831 5823 5819 5817 5811 5805 5798 5790 5780 5770
5753 5741 5754 5786 5787 5801 5806 5809 5801 5796 5801 5794 5814 5812 5844 5860 5862 5869 5886 5889 5881 5878 5879 5878 5876 5874 5872 5869 5867 5863 5860 5855 5849 5840 5833 5828 5824 5818 5812 5805 5797 5787 5776 5766
5731 5740 5758 5759 5788 5795 5786 5803 5805 5810 5804 5819 5827 5824 5864 5876 5878 5876 5884 5883 5881 5884 5887 5890 5890 5882 5877 5876 5874 5870 5862 5856 5851 5843 5835 5830 5823 5816 5809 5801 5793 5783 5771 5760
5702 5728 5737 5748 5772 5775 5758 5800 5805 5813 5816 5827 5809 5843 5871 5871 5876 5876 5878 5884 5889 5894 5893 5893 5893 5891 5888 5885 5883 5876 5869 5862 5852 5845 5837 5830 5823 5813 5805 5797 5788 5777 5765 5754
5702 5708 5723 5744 5746 5717 5793 5817 5823 5816 5827 5834 5842 5860 5866 5876 5890 5892 5889 5890 5896 5899 5900 5900 5899 5898 5895 5889 5883 5876 5869 5862 5852 5843 5836 5828 5820 5810 5801 5793 5782 5770 5759 5748
5714 5702 5708 5724 5740 5765 5790 5805 5813 5806 5817 5843 5841 5856 5870 5879 5883 5886 5893 5900 5902 5910 5913 5912 5912 5908 5896 5891 5884 5878 5868 5860 5850 5842 5834 5827 5819 5808 5798 5788 5776 5764 5752 5740
5726 5722 5707 5716 5727 5729 5776 5825 5839 5834 5801 5849 5850 5855 5860 5865 5838 5863 5895 5902 5903 5909 5914 5907 5904 5898 5893 5886 5884 5875 5865 5859 5850 5842 5834 5826 5818 5807 5795 5784 5771 5759 5748 5735
5690 5698 5707 5724 5746 5751 5801 5830 5836 5779 5793 5851 5854 5859 5856 5851 5869 5903 5899 5900 5902 5897 5903 5902 5898 5894 5890 5883 5876 5865 5860 5854 5849 5841 5830 5821 5812 5802 5790 5778 5765 5753 5740 5729
5709 5704 5706 5724 5728 5746 5816 5823 5804 5833 5853 5858 5859 5865 5860 5873 5889 5890 5895 5895 5896 5893 5893 5892 5887 5882 5881 5877 5871 5859 5853 5848 5841 5834 5824 5814 5803 5794 5783 5771 5756 5745 5735 5723
5710 5718 5725 5753 5777 5804 5821 5840 5847 5853 5857 5864 5870 5879 5872 5873 5880 5886 5884 5887 5890 5893 5892 5887 5882 5876 5872 5869 5864 5852 5841 5837 5829 5822 5816 5806 5794 5784 5774 5763 5750 5737 5728 5718
5699 5724 5726 5757 5786 5806 5821 5839 5848 5850 5856 5868 5875 5883 5876 5876 5877 5880 5883 5883 5885 5888 5887 5885 5876 5870 5863 5860 5854 5846 5836 5826 5817 5808 5802 5799 5787 5774 5764 5755 5745 5734 5722 5711
5686 5711 5718 5741 5774 5796 5813 5835 5842 5850 5862 5870 5873 5876 5880 5877 5876 5875 5875 5881 5883 5882 5880 5878 5871 5864 5856 5849 5841 5834 5826 5818 5804 5796 5787 5787 5779 5766 5750 5739 5733 5726 5716 5712
5681 5694 5697 5715 5749 5751 5781 5812 5838 5844 5853 5864 5865 5867 5874 5876 5874 5874 5874 5878 5880 5876 5874 5868 5861 5855 5846 5839 5830 5823 5817 5810 5797 5784 5775 5772 5767 5754 5742 5732 5718 5712 5707 5703